Location: Copeville
(33.0796°N, 96.4155°W)
Time: 23:54:28
(UTC+00:00)

NOAA 19 - Pass Details

Date: 09 April 2023
Orbit: 840 x 859 km, 99.1° (Epoch: 28 May)

Event Time Altitude Azimuth Distance (km) Brightness Sun altitude
Exits shadow 01:29:32 - 126° (SE) 2,597 7.2 -8.7°
Reaches altitude 10° 01:29:57 10° 124° (SE) 2,460 7.0 -8.8°
Maximum altitude 01:34:26 27° 68° (ENE) 1,565 6.2 -9.7°
Drops below altitude 10° 01:38:57 10° 12° (NNE) 2,463 7.7 -10.6°
Sets 01:41:37 0° 1° (N) 3,401 8.6 -11.2°
